This demonstration page uses our WeatherBlox Daily Observations layout. Learn more.

Left ArrowRight Arrow

36.17497, -115.13722

Hourly Observations for March 9, 2017

Temp ( °F °C ) Dew Point ( °F °C ) Humidity (%) Winds ( mph kmh ) Pressure ( in mb ) Visibility ( mi km ) Precip ( " mm )
12:53 am 00:53 Clear 61 16.1 30 -1.1 31 31 N 6 9 30.14 1021 10 16 0.00 0.00
1:53 am 01:53 Clear 59 15 29 -1.7 32 32 N 8 13 30.15 1021 10 16 0.00 0.00
2:53 am 02:53 Clear 58 14.4 29 -1.7 33 33 NNW 8 13 30.14 1021 10 16 0.00 0.00
3:53 am 03:53 Clear 55 12.8 30 -1.1 38 38 E 3 6 30.14 1021 10 16 0.00 0.00
4:53 am 04:53 Clear 53 11.7 32 0 45 45 WNW 9 15 30.16 1021 10 16 0.00 0.00
5:53 am 05:53 Clear 53 11.7 32 0 45 45 Calm 30.18 1022 10 16 0.00 0.00
6:53 am 06:53 Sunny 58 14.4 30 -1.1 35 35 NNW 10 17 30.18 1022 10 16 0.00 0.00
7:53 am 07:53 Sunny 61 16.1 30 -1.1 31 31 NNW 5 7 30.20 1023 10 16 0.00 0.00
8:53 am 08:53 Sunny 67 19.4 30 -1.1 25 25 NNE 5 7 30.21 1023 10 16 0.00 0.00
9:53 am 09:53 Sunny 69 20.6 30 -1.1 23 23 VRB 3 6 30.20 1023 10 16 0.00 0.00
10:53 am 10:53 Sunny 72 22.2 30 -1.1 21 21 SSE 5 7 30.20 1023 10 16 0.00 0.00
11:53 am 11:53 Sunny 73 22.8 30 -1.1 20 20 SSE 3 6 30.17 1022 10 16 0.00 0.00
12:53 pm 12:53 Sunny 76 24.4 28 -2.2 17 17 E 3 6 30.14 1021 10 16 0.00 0.00
1:53 pm 13:53 Sunny 78 25.6 27 -2.8 15 15 ESE 3 6 30.12 1020 10 16 0.00 0.00
2:53 pm 14:53 Sunny 80 26.7 27 -2.8 14 14 Calm 30.10 1019 10 16 0.00 0.00
3:53 pm 15:53 Sunny 79 26.1 25 -3.9 14 14 ESE 3 6 30.09 1019 10 16 0.00 0.00
4:53 pm 16:53 Sunny 78 25.6 25 -3.9 14 14 SE 3 6 30.09 1019 10 16 0.00 0.00
5:53 pm 17:53 Clear 75 23.9 25 -3.9 15 15 ESE 3 6 30.11 1020 10 16 0.00 0.00
6:53 pm 18:53 Clear 73 22.8 27 -2.8 18 18 Calm 30.11 1020 10 16 0.00 0.00
7:53 pm 19:53 Clear 68 20 32 0 26 26 WNW 6 9 30.12 1020 10 16 0.00 0.00
8:53 pm 20:53 Clear 65 18.3 34 1.1 32 32 NW 5 7 30.13 1020 10 16 0.00 0.00
9:53 pm 21:53 Clear 64 17.8 35 1.7 34 34 WNW 7 11 30.13 1020 10 16 0.00 0.00
10:53 pm 22:53 Clear 60 15.6 35 1.7 39 39 Calm 30.13 1020 10 16 0.00 0.00
11:53 pm 23:53 Clear 60 15.6 34 1.1 38 38 Calm 30.13 1020 10 16 0.00 0.00

Powered by AerisWeather